Weather History for Preston, MN

Change the Weather History Date:

Thursday, October 11, 2012

  Actual Average (KRST) Record (KRST)
Temperature  
Mean Temperature 44 °F 50 °F  
Max Temperature 52 °F 61 °F 82 °F (1934)
Min Temperature 37 °F 40 °F 17 °F (1919)
Degree Days  
Heating Degree Days 20 15  
Month to date heating degree days 145  
Since 1 July heating degree days 360  
Cooling Degree Days 0 0  
Month to date cooling degree days 4  
Year to date cooling degree days 583  
Moisture  
Dew Point 25 °F    
Average Humidity 41    
Maximum Humidity 53    
Minimum Humidity 26    
Precipitation  
Precipitation 0.00 in 0.07 in 1.88 in (1986)
Month to date precipitation 0.94  
Year to date precipitation 28.58  
Snow  
Snow 0.00 in 0.00 in 0.90 in (2009)
Month to date snowfall 0.1  
Since 1 July snowfall 0.1  
Since 1 September snowfall 0.1  
Snow Depth -    
Sea Level Pressure  
Sea Level Pressure 30.08 in    
Wind  
Wind Speed 14 mph (NW)    
Max Wind Speed 20 mph    
Max Gust Speed 29 mph    
Visibility 10 miles    
Events      
T = Trace of Precipitation, MM = Missing Value Source: NWS Daily Summary

Daily Weather History Graph

Daily Weather History Graph

Search for Another Location

Airport:

Trip Planner

Search our weather history database for the weather conditions in past years. The results will help you decide how hot, cold, wet, or windy it might be!

Date:

Astronomy

Oct. 11, 2012 Rise Set
Actual Time 7:18 AM CDT 6:31 PM CDT
Civil Twilight 6:49 AM CDT 6:59 PM CDT
Nautical Twilight 6:16 AM CDT 7:33 PM CDT
Astronomical Twilight 5:43 AM CDT 8:06 PM CDT
Moon 2:50 AM CDT (10/11) 4:14 PM CDT (10/11)
Length of Visible Light 12h 10m
Length of Day
11h 12m
Waning Crescent, 18% of the Moon is Illuminated
Oct 11
Waning Crescent
Oct 15
New
Oct 21
First Quarter
Oct 29
Full
Nov 6
Last Quarter

Hourly Weather History & Observations

Time (CDT) Temp. Windchill Dew Point Humidity Pressure Visibility Wind Dir Wind Speed Gust Speed Precip Events Conditions
12:10 AM 47.3 °F - 22.5 °F 38% 29.97 in 10.0 mi SSW 16.1 mph 21.9 mph N/A   Scattered Clouds
12:30 AM 46.6 °F - 22.8 °F 39% 29.95 in 10.0 mi SSW 17.3 mph 25.3 mph N/A   Clear
12:50 AM 46.2 °F 38.7 °F 23.0 °F 40% 29.95 in 10.0 mi SSW 19.6 mph 24.2 mph N/A   Clear
1:10 AM 46.4 °F 39.5 °F 23.4 °F 40% 29.94 in 10.0 mi SSW 17.3 mph 23.0 mph N/A   Clear
1:30 AM 46.4 °F 40.1 °F 23.9 °F 41% 29.94 in 10.0 mi SSW 15.0 mph 23.0 mph N/A   Clear
2:10 AM 48.0 °F - 24.8 °F 40% 29.92 in 10.0 mi SSW 16.1 mph 23.0 mph N/A   Clear
2:30 AM 48.2 °F - 25.3 °F 41% 29.92 in 10.0 mi SSW 18.4 mph 27.6 mph N/A   Clear
2:50 AM 48.2 °F - 25.9 °F 42% 29.92 in 10.0 mi SW 17.3 mph 27.6 mph N/A   Clear
3:10 AM 48.4 °F - 26.6 °F 43% 29.91 in 10.0 mi SSW 17.3 mph 24.2 mph N/A   Clear
3:30 AM 48.7 °F - 26.6 °F 42% 29.90 in 10.0 mi SSW 19.6 mph 26.5 mph N/A   Clear
3:50 AM 48.6 °F - 27.3 °F 44% 29.90 in 10.0 mi SW 17.3 mph 25.3 mph N/A   Clear
4:10 AM 48.9 °F - 27.5 °F 43% 29.90 in 10.0 mi SW 16.1 mph 28.8 mph N/A   Clear
4:30 AM 49.1 °F - 27.7 °F 44% 29.90 in 10.0 mi SW 18.4 mph 26.5 mph N/A   Clear
4:50 AM 49.1 °F - 28.0 °F 44% 29.92 in 10.0 mi SW 15.0 mph 23.0 mph N/A   Scattered Clouds
5:30 AM 49.8 °F - 28.4 °F 44% 29.94 in 10.0 mi West 12.7 mph 20.7 mph N/A   Clear
5:50 AM 50.0 °F - 28.4 °F 43% 29.94 in 10.0 mi WSW 12.7 mph 20.7 mph N/A   Clear
6:11 AM 49.5 °F - 29.1 °F 46% 29.94 in 10.0 mi WSW 11.5 mph - N/A   Clear
6:30 AM 50.0 °F - 29.3 °F 45% 29.95 in 10.0 mi SW 8.1 mph - N/A   Clear
6:50 AM 50.0 °F - 29.8 °F 46% 29.94 in 10.0 mi SW 8.1 mph - N/A   Clear
7:30 AM 51.1 °F - 29.7 °F 44% 29.96 in 10.0 mi WSW 13.8 mph 18.4 mph N/A   Clear
7:50 AM 51.8 °F - 29.5 °F 42% 29.97 in 10.0 mi WSW 15.0 mph 21.9 mph N/A   Clear
8:10 AM 51.8 °F - 29.8 °F 43% 29.98 in 10.0 mi West 12.7 mph 19.6 mph N/A   Clear
8:30 AM 51.8 °F - 30.0 °F 43% 29.98 in 10.0 mi West 12.7 mph 19.6 mph N/A   Clear
8:50 AM 51.8 °F - 30.4 °F 44% 29.99 in 10.0 mi West 12.7 mph - N/A   Clear
9:10 AM 52.5 °F - 30.9 °F 44% 30.00 in 10.0 mi West 15.0 mph 18.4 mph N/A   Clear
9:30 AM 52.7 °F - 31.1 °F 44% 30.01 in 10.0 mi WNW 15.0 mph - N/A   Clear
9:50 AM 52.9 °F - 30.6 °F 43% 30.02 in 10.0 mi NNW 13.8 mph 18.4 mph N/A   Clear
10:10 AM 51.8 °F - 28.6 °F 41% 30.04 in 10.0 mi North 17.3 mph 21.9 mph N/A   Clear
10:30 AM 50.5 °F - 30.0 °F 45% 30.06 in 10.0 mi North 15.0 mph 21.9 mph N/A   Clear
10:50 AM 49.1 °F - 30.7 °F 49% 30.07 in 10.0 mi North 15.0 mph 24.2 mph N/A   Clear
11:10 AM 48.7 °F - 32.0 °F 52% 30.07 in 10.0 mi North 18.4 mph - N/A   Clear
11:30 AM 48.7 °F - 32.4 °F 53% 30.09 in 10.0 mi North 15.0 mph 20.7 mph N/A   Clear
11:50 AM 49.3 °F - 32.7 °F 53% 30.10 in 10.0 mi North 13.8 mph 18.4 mph N/A   Clear
12:10 PM 49.5 °F - 32.9 °F 53% 30.12 in 10.0 mi North 12.7 mph 20.7 mph N/A   Scattered Clouds
12:30 PM 50.5 °F - 32.5 °F 50% 30.12 in 10.0 mi North 13.8 mph 21.9 mph N/A   Scattered Clouds
12:50 PM 50.9 °F - 31.3 °F 47% 30.13 in 10.0 mi North 13.8 mph 19.6 mph N/A   Scattered Clouds
1:10 PM 50.4 °F - 26.8 °F 40% 30.12 in 10.0 mi North 15.0 mph 24.2 mph N/A   Clear
1:30 PM 50.5 °F - 26.6 °F 39% 30.12 in 10.0 mi North 15.0 mph 23.0 mph N/A   Mostly Cloudy
1:50 PM 49.1 °F - 23.5 °F 37% 30.14 in 10.0 mi North 13.8 mph 19.6 mph N/A   Overcast
2:10 PM 48.2 °F - 24.8 °F 40% 30.14 in 10.0 mi North 12.7 mph - N/A   Mostly Cloudy
2:30 PM 48.4 °F - 24.6 °F 39% 30.14 in 10.0 mi North 13.8 mph 18.4 mph N/A   Scattered Clouds
3:10 PM 49.6 °F - 25.3 °F 39% 30.15 in 10.0 mi North 9.2 mph 16.1 mph N/A   Clear
3:30 PM 49.8 °F - 25.2 °F 38% 30.15 in 10.0 mi NNW 10.4 mph 18.4 mph N/A   Scattered Clouds
3:50 PM 50.0 °F - 23.5 °F 36% 30.16 in 10.0 mi NNW 11.5 mph - N/A   Scattered Clouds
4:10 PM 49.6 °F - 21.9 °F 34% 30.17 in 10.0 mi North 11.5 mph - N/A   Mostly Cloudy
4:30 PM 50.0 °F - 22.8 °F 34% 30.17 in 10.0 mi NNW 6.9 mph - N/A   Scattered Clouds
4:50 PM 50.0 °F - 21.9 °F 33% 30.18 in 10.0 mi North 12.7 mph 18.4 mph N/A   Scattered Clouds
5:10 PM 49.8 °F - 23.0 °F 35% 30.19 in 10.0 mi North 12.7 mph 16.1 mph N/A   Scattered Clouds
5:30 PM 49.3 °F - 22.8 °F 35% 30.19 in 10.0 mi NNW 10.4 mph - N/A   Mostly Cloudy
6:30 PM 48.4 °F - 19.4 °F 32% 30.21 in 10.0 mi North 6.9 mph - N/A   Scattered Clouds
6:50 PM 47.8 °F - 19.0 °F 32% 30.22 in 10.0 mi NNW 6.9 mph - N/A   Scattered Clouds
7:10 PM 47.5 °F - 18.0 °F 31% 30.23 in 10.0 mi NNW 8.1 mph - N/A   Clear
7:31 PM 46.9 °F - 15.1 °F 28% 30.24 in 10.0 mi North 9.2 mph - N/A   Clear
8:10 PM 46.4 °F 42.4 °F 13.1 °F 26% 30.26 in 10.0 mi North 8.1 mph - N/A   Clear
8:30 PM 45.7 °F 41.0 °F 14.0 °F 28% 30.26 in 10.0 mi North 9.2 mph - N/A   Clear
8:50 PM 45.3 °F 41.1 °F 13.8 °F 28% 30.28 in 10.0 mi North 8.1 mph - N/A   Clear
9:10 PM 44.6 °F 38.8 °F 14.5 °F 30% 30.29 in 10.0 mi North 11.5 mph - N/A   Clear
10:10 PM 39.9 °F 35.1 °F 16.7 °F 39% 30.32 in 10.0 mi North 6.9 mph - N/A   Clear
10:30 PM 39.2 °F 34.2 °F 17.6 °F 42% 30.33 in 10.0 mi North 6.9 mph - N/A   Clear
11:10 PM 37.9 °F 34.4 °F 17.6 °F 44% 30.34 in 10.0 mi North 4.6 mph - N/A   Clear
11:30 PM 37.0 °F 34.5 °F 18.5 °F 47% 30.35 in 10.0 mi North 3.5 mph - N/A   Clear